Погода в Рубцовске

Погода в Рубцовске : погода сейчас, прогноз погоды и архив. Всё, что Вы хотите узнать о погоде в Рубцовске!

Хотите узнать прогноз погоды в Рубцовске? Тогда Вам сюда: Погода в Рубцовске

Поиск расширенной информации на нашем сайте:

Полезная информация: ульяновская фабрика межкомнатных дверей

Другие новости

Новости СМИ2

Главная страница сайта

Новости сайта

03.07.2017

Напоминаем, что на нашем специализированном сайте Метеоцентр.Азия вы можете получить высокодетализированные автоматические прогнозы погоды по пунктам России, СНГ и мира в авиационном формате (включающие направление и скорость ветра, видимость, явления погоды, количество и форму облачности, нижнюю и верхнюю границу облачности).

Рекомендуем: нужен офис? купить офис в раойне 1-я Брестская улица интересные предложения

Погода в Рубцовске - сегодня

Время (UTC), дата Ветер
(°,м/с) 
Видим.   Явления Облачность Т
(°С)
Тd
(°С)
f(%) Тe
(°С)
Pmin
(гПа)
dP
(гПа)
Po
(мм)
O2
(г/м3)
Тmin Tmax R s Состояние
почвы
00 18.08.17 250 (З) 20000 м    5/0 средняя, верхняя 
[Ac und|Ci fib]
+10.1 +8 87 +11  1015.8  0.2  742  287  +8.9        сухая 
03 18.08.17 210 (ЮЗ) 20000 м    10/0 верхняя 
[Ci sp]
+18.7 +11.6 63 +24  1015.5  0.5  743  278           
06 18.08.17 020 (С) 20000 м    8/3 600 м верхняя 
[Sc|Ci sp]
+21.8 +8.6 43 +22  1014.7  -0.6  742  275           
09 18.08.17 340 (С) 20000 м    8/6 600 м верхняя 
[Sc|Ci sp]
+22.2 +9.3 44 +23  1014.1  -0.6  742  275           
12 18.08.17 310 (СЗ) 20000 м  {ливн. осадки}  10/10 600 м кучево-дожд. 
[Cb cap]
+20.4 +12 59 +25  1015  0.9  742  276    +23.6  0.0     
15 18.08.17 340 (С) 20000 м    10/10 600 м кучево-дожд. 
[Cb cap]
+16.4 +12.7 79 +22  1016.7  1.2  743  280           
18 18.08.17 320 (СЗ) 20000 м    10/3 600 м верхняя 
[Sc|Ci sp]
+13.4 +11.9 91 +17  1017.5  0.5  744  283           
21 18.08.17 320 (СЗ) 4000 м  дымка  ясно 
+10.9 +10.1 95 +12  1017.8  0.1  744  286           
00 19.08.17 310 (СЗ) 4000 м  дымка  6/0 верхняя 
[Ci sp]
+9.3 +8.8 97 +9  1019.1  1.1  744  289  +9.2        сухая 
03 19.08.17 330 (СЗ) 20000 м    6/0 верхняя 
[Ci]
+16.2 +9.7 65 +17  1019.2  0.7  745  282           
06 19.08.17 330 (СЗ) 20000 м    6/6 1000 м 
[Cu hum]
+18.3 +8.1 51 +19  1018.8  -0.1  745  280           
09 19.08.17 340 (С) 4{10}  20000 м  слаб. ливневой дождь{гроза}  8/6 600 м кучево-дожд., верхняя 
[Cb cap|Ci sp]
+15.2 +8.7 65 +15  1019.8  0.6  745  283           
12 19.08.17 330 (СЗ) 3{15}  20000 м  в посл. час ливневой дождь{гроза}  6/5 600 м кучево-дожд., верхняя 
[Cb cap|Ci sp]
+15.3 +10.9 75 +18  1020.7  0.9  746  283    +18.8     
15 19.08.17 290 (З) 20000 м    ясно 
+11.4 +8.6 83 +13  1022.1  747  287           
18 19.08.17 270 (З) 20000 м    ясно 
+9.6 +7.8 89 +10  1022.5  0.3  747  289           
21 19.08.17 280 (З) 20000 м    3/0 средняя 
[Ac cast]
+8.3 +7.1 92 +8  1022.8  0.1  747  291           
00 20.08.17 220 (ЮЗ) 4000 м  дымка  3/0 верхняя 
[Ci fib]
+8.5 +7.7 95 +10  1023.1  0.3  747  291  +8.1        влажная 
03 20.08.17 200 (Ю) 20000 м    10/0 средняя, верхняя 
[Ac cast|Cc]
+14.7 +10.4 75 +18  1023.2  0.7  748  284           
06 20.08.17 300 (СЗ) 20000 м    10/5 600 м кучево-дожд., средняя, верхняя 
[Cb cap|Ac und|Cc]
+19.5 +6.3 42 +20  1022.1  -0.7  747  280           
09 20.08.17 040 (СВ) 3{10}  20000 м  слаб. ливневой дождь  10/8 600 м кучево-дожд., верхняя 
[Cb cap|Ci ing]
+14.7 +8.3 65 +15  1021.8  -0.6  747  284           
12 20.08.17 250 (З) 20000 м  осадки на расстоянии{ливн. осадки}  4/3 600 м кучево-дожд., средняя 
[Cb cap|Ac cuf]
+16.9 +8 56 +18  1021.5  -0.2  747  282    +20.2     
15 20.08.17 360 (С) 20000 м  в посл. час ливневой дождь  5/3 600 м кучево-дожд., средняя 
[Cb cap|Ac lent]
+12.8 +9.3 79 +13  1022.9  747  286           
18 20.08.17 тихо ()   4000 м  дымка{ливн. осадки}  ясно 
+10.1 +7.8 86 +10  1023.2  0.1  748  289           
21 20.08.17 240 (ЮЗ) 4000 м  дымка  ясно 
+8.1 +6.8 91 +8  1023.1  -0.3  747  291           
00 21.08.17 180 (Ю) 4000 м  в посл. час туман  ясно 
+7.3 +6.6 95 +8  1023.7  0.5  748  292  +6.5    0.0    влажная 
Время (UTC), дата Ветер
(°,м/с) 
Видим.   Явления Облачность Т
(°С)
Тd
(°С)
f(%) Тe
(°С)
Pmin
(гПа)
dP
(гПа)
Po
(мм)
O2
(г/м3)
Тmin Tmax R s Состояние
почвы

Для получения пояснительной информации подведите курсор к названию столбца.

ПОГОДА в Рубцовске - архив

Всё, что Вы хотите узнать о погоде в Рубцовске - удобно и подробно!

Выберите нужную дату (начиная с 1 января 2015* года) и нажмите кнопку "Найти".
Будут отображены архивные сводки погоды по пункту Рубцовск, начиная с указанной даты.


Отображать данные в формате CSV (для использования в таблицах Excel)


Внимание! Наш архив погоды предназначен исключительно для личного некоммерческого использования в познавательных целях. Если Вам необходимы официальные справки о состоянии погоды (для производственных, юридических, коммерческих и т.п. целей), обращайтесь в органы Росгидромета.

*Примечание: данная дата относится к архиву по метеостанциям СССР (Россия, СНГ, Балтия).
Архив по метеостанциям Зарубежной Европы и Азии (кроме Китая) хранится 10 дней, по другим регионам земного шара (Китай, Африка, Америка, Австралия, Океания) - 1 день.

Рубцовск - район местоположения метеостанции


Название, широта, долгота, высота метеостанции:
Рубцовск 51.5°ш. 81.2°д. 219 м над ур. моря [Российская Федерация]

Дополнительная информация

В oтличие oт бoльшинства пoгoдных сайтoв мы публикуем пoдрoбную метеoинфoрмацию в детальнoм прoфессиoнальнoм фoрмате.

Характеристики температуры и влажнoсти вoздуха измеряются на высoте 2 м в тени вдали oт зданий и деревьев.
Скoрoсть ветра измеряется на высoте 10 м (на урoвне рoста челoвека скoрoсть ветра ниже в 1.5-2 раза). Если метеoстанция нахoдится в гoрoде или в лесу, тo скoрoсть ветра занижена на 2-4 м/с пo сравнению с oткрытым местoм. Скoрoсть ветра над акватoриями крупных рек и oзёр, а также на вершинах хoлмoв на 2-5 м/с выше, чем в oбычных услoвиях.
Атмoсфернoе давление в разных тoчках местнoсти мoжет значительнo oтличаться oт давления на метеoстанции, в зависимoсти oт услoвий рельефа (при пoдъёме на 10 м давление пoнижается примернo на 1 мм рт.ст.).